Weather History for Kirksville, MO

Change the Weather History Date:

Saturday, April 27, 2013

  Actual Average Record
Temperature  
Mean Temperature 47 °F 56 °F  
Max Temperature 53 °F 66 °F 89 °F (1956)
Min Temperature 41 °F 45 °F 29 °F (1953)
Degree Days  
Heating Degree Days 18 10  
Month to date heating degree days 474 375  
Since 1 July heating degree days 5836 5662  
Cooling Degree Days 0 0  
Month to date cooling degree days 3 0  
Year to date cooling degree days 3 0  
Moisture  
Dew Point 47 °F    
Average Humidity 89    
Maximum Humidity 100    
Minimum Humidity 77    
Precipitation  
Precipitation 0.39 in 0.16 in 2.00 in (1943)
Month to date precipitation 7.18 3.30  
Year to date precipitation 15.97 8.65  
Sea Level Pressure  
Sea Level Pressure 30.12 in    
Wind  
Wind Speed 4 mph (East)    
Max Wind Speed 10 mph    
Max Gust Speed 13 mph    
Visibility 7 miles    
Events Fog , Rain    
T = Trace of Precipitation, MM = Missing Value Source: NWS Daily Summary

Daily Weather History Graph

Daily Weather History Graph

Search for Another Location

Airport:

Trip Planner

Search our weather history database for the weather conditions in past years. The results will help you decide how hot, cold, wet, or windy it might be!

Date:

Astronomy

Apr. 27, 2013 Rise Set
Actual Time 6:14 AM CDT 8:01 PM CDT
Civil Twilight 5:45 AM CDT 8:30 PM CDT
Nautical Twilight 5:10 AM CDT 9:05 PM CDT
Astronomical Twilight 4:33 AM CDT 9:43 PM CDT
Moon 10:31 PM CDT (4/27) 7:33 AM CDT (4/27)
Length of Visible Light 14h 44m
Length of Day
13h 46m
Waning Gibbous, 95% of the Moon is Illuminated
Apr 27
Waning Gibbous
May 2
Last Quarter
May 9
New
May 17
First Quarter
May 24
Full

Hourly Weather History & Observations

Time (CDT) Temp. Windchill Dew Point Humidity Pressure Visibility Wind Dir Wind Speed Gust Speed Precip Events Conditions
12:11 AM 46.4 °F 43.5 °F 44.6 °F 93% 30.27 in 10.0 mi South 5.8 mph - N/A   Mostly Cloudy
12:37 AM 46.4 °F 45.2 °F 42.8 °F 87% 30.26 in 10.0 mi SE 3.5 mph - N/A   Scattered Clouds
12:55 AM 46.0 °F 44.8 °F 44.1 °F 93% 30.27 in 10.0 mi SSE 3.5 mph - N/A   Clear
1:55 AM 43.0 °F 41.3 °F 42.1 °F 97% 30.27 in 10.0 mi SSE 3.5 mph - N/A   Clear
2:55 AM 43.0 °F 40.3 °F 42.1 °F 97% 30.24 in 10.0 mi ESE 4.6 mph - N/A   Partly Cloudy
3:55 AM 41.0 °F 38.0 °F 41.0 °F 100% 30.22 in 10.0 mi SE 4.6 mph - N/A   Partly Cloudy
4:55 AM 45.0 °F 43.5 °F 43.0 °F 93% 30.20 in 10.0 mi East 3.5 mph - N/A   Overcast
5:55 AM 45.0 °F 42.6 °F 43.0 °F 93% 30.19 in 10.0 mi East 4.6 mph - N/A   Mostly Cloudy
6:55 AM 45.0 °F 43.5 °F 44.1 °F 97% 30.19 in 10.0 mi ENE 3.5 mph - N/A   Partly Cloudy
7:55 AM 46.9 °F - 45.0 °F 93% 30.20 in 10.0 mi ENE 4.6 mph - N/A   Scattered Clouds
8:03 AM 46.4 °F 44.3 °F 44.6 °F 93% 30.19 in 10.0 mi East 4.6 mph - N/A   Mostly Cloudy
8:55 AM 48.9 °F - 46.0 °F 90% 30.20 in 10.0 mi ESE 6.9 mph - N/A   Overcast
9:47 AM 50.0 °F - 46.4 °F 87% 30.17 in 10.0 mi East 8.1 mph - N/A   Overcast
9:55 AM 50.0 °F - 46.0 °F 86% 30.19 in 10.0 mi ESE 6.9 mph - N/A   Overcast
10:03 AM 50.0 °F - 46.4 °F 87% 30.17 in 10.0 mi ESE 4.6 mph - N/A   Overcast
10:53 AM 51.8 °F - 46.4 °F 82% 30.16 in 10.0 mi East 8.1 mph - N/A   Overcast
10:55 AM 52.0 °F - 46.0 °F 80% 30.18 in 10.0 mi East 6.9 mph - N/A   Overcast
11:55 AM 52.0 °F - 45.0 °F 77% 30.17 in 10.0 mi East 9.2 mph - N/A   Overcast
12:39 PM 51.8 °F - 46.4 °F 82% 30.14 in 6.0 mi East 6.9 mph - 0.01 in Rain Light Rain
12:55 PM 51.8 °F - 46.4 °F 82% 30.14 in 6.0 mi East 8.1 mph - N/A Rain Light Rain
1:02 PM 51.8 °F - 48.2 °F 88% 30.14 in 5.0 mi ESE 8.1 mph - 0.01 in Rain Light Rain
1:17 PM 51.8 °F - 48.2 °F 88% 30.13 in 5.0 mi East 6.9 mph - 0.02 in Rain Light Rain
1:55 PM 51.1 °F - 48.9 °F 92% 30.14 in 7.0 mi ESE 6.9 mph - 0.03 in Rain Light Rain
2:25 PM 50.0 °F - 48.2 °F 94% 30.11 in 7.0 mi ESE 9.2 mph - 0.01 in Rain Light Rain
2:39 PM 50.0 °F - 48.2 °F 94% 30.11 in 3.0 mi ESE 6.9 mph - 0.03 in Rain Light Rain
2:55 PM 50.0 °F - 48.0 °F 93% 30.13 in 3.0 mi East 4.6 mph - 0.06 in Rain Light Rain
3:17 PM 50.0 °F - 48.2 °F 94% 30.10 in 3.0 mi East 3.5 mph - 0.05 in Rain Rain
3:55 PM 50.0 °F - 48.9 °F 96% 30.11 in 5.0 mi East 4.6 mph - 0.13 in Rain Light Rain
4:05 PM 50.0 °F - 48.2 °F 94% 30.08 in 7.0 mi Calm Calm - 0.01 in Rain Light Rain
4:32 PM 51.8 °F - 48.2 °F 88% 30.07 in 10.0 mi ENE 3.5 mph - 0.02 in Rain Light Rain
4:39 PM 50.0 °F - 48.2 °F 94% 30.07 in 9.0 mi Calm Calm - 0.02 in Rain Light Rain
4:55 PM 50.0 °F - 48.0 °F 93% 30.09 in 5.0 mi NE 3.5 mph - 0.03 in Rain Light Rain
5:05 PM 50.0 °F - 48.2 °F 94% 30.07 in 5.0 mi NE 5.8 mph - 0.02 in Rain Light Rain
5:14 PM 50.0 °F - 48.2 °F 94% 30.06 in 4.0 mi ENE 4.6 mph - 0.03 in Rain Light Rain
5:21 PM 50.0 °F - 48.2 °F 94% 30.06 in 3.0 mi NE 4.6 mph - 0.05 in Rain Rain
5:45 PM 50.0 °F - 48.2 °F 94% 30.06 in 4.0 mi NE 3.5 mph - 0.09 in Rain Light Rain
5:55 PM 50.0 °F - 48.9 °F 96% 30.07 in 4.0 mi ENE 4.6 mph - 0.10 in Rain Light Rain
6:32 PM 50.0 °F - 48.2 °F 94% 30.04 in 5.0 mi ENE 4.6 mph - 0.02 in Rain Light Rain
6:55 PM 50.0 °F - 48.9 °F 96% 30.06 in 8.0 mi ENE 4.6 mph - 0.03 in Rain Light Rain
7:14 PM 50.0 °F - 48.2 °F 94% 30.04 in 10.0 mi NE 4.6 mph - 0.00 in   Overcast
7:42 PM 50.0 °F - 48.2 °F 94% 30.03 in 10.0 mi Calm Calm - 0.00 in   Overcast
7:55 PM 50.0 °F - 48.9 °F 96% 30.05 in 9.0 mi NNE 3.5 mph - 0.00 in   Overcast
8:38 PM 50.0 °F - 48.2 °F 94% 30.02 in 10.0 mi NNE 3.5 mph - N/A   Overcast
8:55 PM 48.9 °F - 48.0 °F 97% 30.04 in 9.0 mi Calm Calm - N/A   Overcast
9:55 PM 48.9 °F - 48.0 °F 97% 30.04 in 6.0 mi Calm Calm - N/A   Overcast
10:28 PM 48.2 °F - 48.2 °F 100% 30.02 in 6.0 mi Calm Calm - N/A   Overcast
10:47 PM 48.2 °F - 48.2 °F 100% 30.01 in 6.0 mi Calm Calm - N/A   Overcast
10:55 PM 48.9 °F - 48.0 °F 97% 30.03 in 6.0 mi Calm Calm - N/A   Overcast
11:31 PM 48.2 °F - 48.2 °F 100% 30.01 in 1.8 mi Calm Calm - N/A   Overcast
11:36 PM 48.2 °F - 48.2 °F 100% 30.00 in 0.8 mi Calm Calm - N/A   Overcast
11:47 PM 48.2 °F - 48.2 °F 100% 30.00 in 1.5 mi Calm Calm - N/A   Overcast
11:55 PM 48.0 °F - 48.0 °F 100% 30.02 in 0.5 mi Calm Calm - N/A Fog Fog